Home > Weather > Montreux > Past weeks

Flag for Switzerland Weather for the Past 2 Weeks in Montreux, Vaud, Switzerland

Now
56 °F

Refreshingly cool.


Feels Like: 52 °F
Forecast: 24 / 40 °F
Wind: 18 mph from Southeast

Location: Aigle

Current Time: Feb 7, 2016 at 7:08:30 AM

Latest Report: Feb 7, 2016 at 6:00 AM


Visibility: N/A

Pressure: 29.62 "Hg

Humidity: 33%

Dew point: 28 °F

Location of MontreuxLocation

Historic Weather in Montreux — Graph

°F

Montreux Temperature Yesterday

Maximum temperature yesterday: 54 °F (at 9:00 PM)
Minimum temperature yesterday: 36 °F (at 5:00 AM)
Average temperature yesterday: 42 °F

High & Low Weather Summary for the Past Weeks

 TemperatureHumidityPressure
High57 °F (Feb 1, 2:00 PM)100% (Feb 5, 9:00 AM)30.67 "Hg (Feb 5, 9:00 AM)
Low33 °F (Jan 23, 9:00 PM)34% (Feb 7, 5:00 AM)29.64 "Hg (Feb 7, 5:00 AM)
Average43 °F81%30.38 "Hg
* Reported Jan 23 5:00 AM — Feb 7 5:00 AM, Montreux, Weather by CustomWeather, © 2016

Note: Actual official high and low records may vary slightly from our data, if they occured in-between our weather recording intervals... More about our weather records

Advertising

Montreux Weather History for the Previous 24 Hours

 ConditionsComfort  
Time TempWeatherWind HumidityBarometerVisibility
5:00 AM
Sun, Feb 7
56 °FRefreshingly cool.18 mph34%29.64 "HgN/A
9:00 PM
Sat, Feb 6
54 °FCool.23 mph35%29.83 "HgN/A
8:00 PM50 °FCool.15 mph47%29.87 "HgN/A
7:00 PM49 °FFog.8 mph54%29.90 "Hg7 mi
6:00 PM40 °FQuite cool.3 mph89%29.96 "HgN/A
5:00 PM40 °FQuite cool.13 mph93%29.98 "HgN/A
4:00 PM43 °FOvercast.9 mph88%30.01 "Hg9 mi
3:00 PM44 °FQuite cool.12 mph85%30.04 "HgN/A
2:00 PM45 °FQuite cool.10 mph82%30.08 "HgN/A
1:00 PM44 °FOvercast.10 mph85%30.13 "Hg11 mi
12:00 PM43 °FQuite cool.13 mph87%30.17 "HgN/A
11:00 AM42 °FQuite cool.3 mph88%30.20 "HgN/A
10:00 AM40 °FPartly sunny.3 mph94%30.23 "Hg12 mi
9:00 AM38 °FChilly.5 mph94%30.24 "HgN/A
8:00 AM38 °FChilly.5 mph95%30.24 "HgN/A
7:00 AM37 °FChilly.5 mph97%30.24 "HgN/A
Weather by CustomWeather, © 2016

See weather overviewHow to use our weather pages